Regional Weather Roundup
Issued by NWS

Home | Current Version | Previous Version | Graphics & Text | Print | Product List | Glossary On
Versions: 1 2 3 4 5 6 7 8 9 10 11 12 13 14 15 16 17 18 19 20 21 22 23 24 25 26 27 28 29 30 31 32 33 34 35 36 37 38 39 40 41 42 43 44 45 46
188
ASUS44 KJAN 021503
RWRMS

MISSISSIPPI HOURLY WEATHER ROUNDUP
NATIONAL WEATHER SERVICE JACKSON MS
1000 AM CDT TUE SEP 02 2014

NOTE: "FAIR: INDICATES FEW OR NO CLOUDS BELOW 12,000 FEET WITH NO
SIGNIFICANT WEATHER AND/OR OBSTRUCTIONS TO VISIBILITY.

MSZ001>002-007>008-010>013-018>021-025>028-034>036-021600-
NORTHWEST MISSISSIPPI

CITY           SKY/WX    TMP DP  RH WIND       PRES   REMARKS
CLARKSDALE     CLOUDY    81  77  89 CALM      30.07S
CLEVELAND      CLOUDY    79  77  93 S5        30.07R
GREENWOOD      PTSUNNY   82  75  79 SW6       30.07R
GREENVILLE     CLOUDY    80  75  84 SW7       30.06R
GRENADA        CLOUDY    81  73  78 W6        30.08R
OLIVE BRANCH   PTSUNNY   79  79 100 W9        30.08R
OXFORD         CLOUDY    79  73  83 W5        30.10R
TUNICA         CLOUDY    81  73  78 SW9       30.07R
$$

MSZ003>006-009-014>017-022>024-029>033-037>039-021600-
NORTHEAST MISSISSIPPI

CITY           SKY/WX    TMP DP  RH WIND       PRES   REMARKS
BELMONT        PTSUNNY   81  75  81 SW8       30.09S
COLUMBUS AFB   MOSUNNY   85  74  71 SW6       30.08S HX  92
CORINTH        CLOUDY    82  73  74 SW10      30.07S
GOLDN TRIANGLE MOSUNNY   84  73  70 W3        30.09F HX  91
STARKVILLE     FAIR      82  73  74 SW3       30.08S
TUPELO         PTSUNNY   84  74  71 W7        30.08R HX  91
$$

MSZ040-058-021600-
CENTRAL MISSISSIPPI

CITY           SKY/WX    TMP DP  RH WIND       PRES   REMARKS
JACKSON INTL   CLOUDY    82  76  81 S8        30.08S
JACKSON HAWKNS PTSUNNY   83  75  77 S7        30.09R HX  90
MERIDIAN KEY   CLOUDY    81  75  82 SW7       30.10R
MERIDIAN NAS   CLOUDY    82  74  76 SW5       30.10S
RAYMOND        PTSUNNY   82  77  83 S5        30.08R HX  91
VICKSBURG      PTSUNNY   84  77  79 S8        30.07R HX  94
$$

MSZ059>079-021600-
SOUTH MISSISSIPPI

CITY           SKY/WX    TMP DP  RH WIND       PRES   REMARKS
BROOKHAVEN     FAIR      81  79  94 CALM      30.10S
HATTIESBURG    CLOUDY    84  76  76 CALM      30.09R HX  93
MCCOMB         MOSUNNY   83  75  77 VRB6      30.09R HX  90
NATCHEZ        PTSUNNY   82  77  83 S7        30.07S HX  91
PINE BELT      CLOUDY    79  73  83 CALM      30.11R
$$

MSZ080>082-021600-
COASTAL MISSISSIPPI

CITY           SKY/WX    TMP DP  RH WIND       PRES   REMARKS
BAY ST LOUIS   PTSUNNY  N/A N/A N/A S7        30.07F
BILOXI         MOSUNNY   87  76  70 S5        30.08S HX  98
PASCAGOULA     SUNNY     86  75  69 S6        30.08S HX  95
GULFPORT       MOSUNNY   87  77  72 SE7       30.07S HX  99
$$



USA.gov is the U.S. government's official web portal to all federal, state and local government web resources and services.